EW2631 Weather Reports


time (UTC)temp
C
wind
direction
speed
KPH
gust
KPH
rain 1hr
cm
rain 24hr
cm
rain mn
cm
humidity
%
barometer
mb
20260507023052 9 294 0.0 0.0 0.00 0.00 0.00 38 1015.6
20260507021553 10 294 0.0 1.6 0.00 0.00 0.00 37 1015.6
20260507020054 10 293 0.0 1.6 0.00 0.00 0.00 36 1015.6
20260507014555 10 292 0.0 4.8 0.00 0.00 0.00 35 1015.6
20260507013109 11 335 0.0 8.0 0.00 0.00 0.00 34 1015.6
20260507011550 11 311 3.2 6.4 0.00 0.00 0.00 33 1015.5
20260507004551 11 300 3.2 11.3 0.00 0.00 0.00 32 1015.6
20260507003049 11 295 3.2 14.5 0.00 0.00 0.00 32 1015.6
20260507001552 12 333 3.2 16.1 0.00 0.00 0.00 33 1015.6
20260507000046 12 326 6.4 17.7 0.00 0.00 0.00 32 1015.7
20260506234548 12 326 0.0 9.7 0.00 0.00 0.00 33 1015.7
20260506233056 12 293 4.8 14.5 0.00 0.00 0.00 33 1015.9
20260506231542 12 314 6.4 14.5 0.00 0.00 0.00 32 1016.1
20260506230041 12 321 6.4 17.7 0.00 0.00 0.00 32 1016.2
20260506224541 12 305 8.0 17.7 0.00 0.00 0.00 32 1016.3
20260506223038 12 318 8.0 16.1 0.00 0.00 0.00 32 1016.2
20260506221538 12 283 6.4 17.7 0.00 0.00 0.00 33 1016.5
20260506220039 12 299 4.8 17.7 0.00 0.00 0.00 33 1016.6
20260506214537 11 334 4.8 11.3 0.00 0.00 0.00 35 1016.8
20260506213036 11 309 6.4 14.5 0.00 0.00 0.00 34 1016.9
20260506211535 12 300 6.4 16.1 0.00 0.00 0.00 35 1017.1
20260506210036 12 330 4.8 16.1 0.00 0.00 0.00 34 1017.3
20260506204535 11 274 8.0 20.9 0.00 0.00 0.00 36 1017.4
20260506203030 11 311 6.4 14.5 0.00 0.00 0.00 39 1017.7
20260506201533 11 350 6.4 16.1 0.00 0.00 0.00 36 1017.7
20260506200038 11 335 8.0 19.3 0.00 0.00 0.00 37 1018.1
20260506194528 11 351 8.0 17.7 0.00 0.00 0.00 36 1018.1
20260506193029 11 323 6.4 16.1 0.00 0.00 0.00 37 1018.2
20260506191526 11 335 8.0 17.7 0.00 0.00 0.00 38 1018.3
20260506190026 11 319 9.7 17.7 0.00 0.00 0.00 37 1018.5
20260506184525 11 305 8.0 16.1 0.00 0.00 0.00 38 1018.6
20260506183024 11 297 8.0 25.7 0.00 0.00 0.00 40 1018.8
20260506181520 10 322 6.4 19.3 0.00 0.00 0.00 40 1018.9
20260506180020 10 304 4.8 24.1 0.00 0.00 0.00 40 1019.0
20260506174518 10 342 6.4 19.3 0.00 0.00 0.00 42 1019.2
20260506173022 10 321 3.2 19.3 0.00 0.00 0.00 42 1019.2
20260506171514 9 352 11.3 25.7 0.00 0.00 0.00 41 1019.5
20260506170012 8 307 6.4 19.3 0.00 0.00 0.00 41 1019.4
20260506164514 8 317 6.4 17.7 0.00 0.00 0.00 41 1019.4
20260506163009 8 325 3.2 12.9 0.00 0.00 0.00 45 1019.5
20260506161508 7 335 4.8 16.1 0.00 0.00 0.00 47 1019.7
20260506160014 7 39 4.8 16.1 0.00 0.00 0.00 47 1019.6
20260506154507 8 303 4.8 19.3 0.00 0.00 0.00 46 1019.6
20260506153005 8 301 4.8 11.3 0.00 0.00 0.00 49 1019.5
20260506151502 7 303 4.8 16.1 0.00 0.00 0.00 52 1019.6
20260506150100 7 327 6.4 14.5 0.00 0.00 0.00 50 1019.7
20260506150002 7 356 4.8 14.5 0.00 0.00 0.00 51 1019.7
20260506144557 7 332 6.4 12.9 0.00 0.00 0.00 50 1019.8
20260506143054 6 304 4.8 12.9 0.00 0.00 0.00 52 1019.7
20260506141607 6 319 1.6 8.0 0.00 0.00 0.00 58 1019.8
20260506140047 5 346 1.6 4.8 0.00 0.00 0.00 60 1019.8
20260506134543 4 313 3.2 8.0 0.00 0.00 0.00 61 1019.7
20260506133039 3 321 3.2 9.7 0.00 0.00 0.00 65 1019.6
20260506131539 3 292 1.6 6.4 0.00 0.00 0.00 67 1019.5
20260506130039 2 345 3.2 9.7 0.00 0.00 0.00 67 1019.5
20260506124539 1 326 3.2 9.7 0.00 0.00 0.00 70 1019.3
20260506123040 0 313 3.2 8.0 0.00 0.00 0.00 71 1019.2
20260506121531 0 300 1.6 8.0 0.00 0.00 0.00 72 1019.0
20260506120037 0 304 0.0 6.4 0.00 0.00 0.00 72 1018.8
20260506114527 0 318 0.0 4.8 0.00 0.00 0.00 73 1018.4
20260506113026 0 329 0.0 3.2 0.00 0.00 0.00 72 1018.2
20260506111522 0 324 0.0 6.4 0.00 0.00 0.00 72 1018.0
20260506110025 0 302 0.0 8.0 0.00 0.00 0.00 71 1017.7
20260506104520 0 291 1.6 4.8 0.00 0.00 0.00 71 1017.7
20260506103027 0 321 1.6 8.0 0.00 0.00 0.00 70 1017.8
20260506101520 0 311 1.6 4.8 0.00 0.00 0.00 70 1017.8
20260506100014 0 300 0.0 3.2 0.00 0.00 0.00 71 1017.7
20260506094526 0 274 0.0 3.2 0.00 0.00 0.00 70 1017.7
20260506093008 0 274 0.0 1.6 0.00 0.00 0.00 70 1017.3
20260506091505 0 274 0.0 0.0 0.00 0.00 0.00 68 1017.4
20260506090002 1 293 0.0 4.8 0.00 0.00 0.00 67 1017.4
20260506084559 1 309 0.0 6.4 0.00 0.00 0.00 66 1017.1
20260506083057 1 311 0.0 6.4 0.00 0.00 0.00 65 1017.0
20260506081555 1 310 1.6 4.8 0.00 0.00 0.00 63 1016.8
20260506073053 2 317 0.0 1.6 0.00 0.00 0.00 62 1016.5
20260506071551 2 317 0.0 4.8 0.00 0.00 0.00 61 1016.9
20260506070105 2 317 0.0 3.2 0.00 0.00 0.00 60 1016.7
20260506061538 3 333 1.6 4.8 0.00 0.00 0.00 58 1016.8
20260506044525 4 333 0.0 6.4 0.00 0.00 0.00 54 1016.0
20260506043023 4 25 1.6 6.4 0.00 0.00 0.00 53 1016.0
20260506041521 5 349 1.6 6.4 0.00 0.00 0.00 52 1016.1
20260506040021 5 332 1.6 11.3 0.00 0.00 0.00 51 1016.1
20260506034520 5 20 1.6 9.7 0.00 0.00 0.00 50 1016.1
20260506033019 5 7 1.6 6.4 0.00 0.00 0.00 49 1015.9
20260506031519 6 352 3.2 11.3 0.00 0.00 0.00 48 1015.8
20260506030019 6 329 1.6 8.0 0.00 0.00 0.00 47 1015.8
20260506024515 6 322 3.2 9.7 0.00 0.00 0.00 46 1015.5